| time (UTC) | temp C | wind direction | speed KPH | gust KPH | rain 1hr cm | rain 24hr cm | rain mn cm | humidity % | barometer mb |
| 20260903024502 | 27 | 275 | 1.6 | 6.4 | 0.00 | 0.00 | 0.00 | 84 | 1012.2 |
| 20260903023002 | 27 | 269 | 1.6 | 8.0 | 0.00 | 0.00 | 0.00 | 84 | 1012.1 |
| 20260903021600 | 27 | 280 | 3.2 | 9.7 | 0.00 | 0.00 | 0.00 | 83 | 1012.3 |
| 20260903020100 | 27 | 284 | 3.2 | 8.0 | 0.00 | 0.00 | 0.00 | 83 | 1012.2 |
| 20260903014619 | 27 | 284 | 4.8 | 9.7 | 0.00 | 0.00 | 0.00 | 83 | 1012.0 |
| 20260903013105 | 27 | 278 | 4.8 | 9.7 | 0.00 | 0.00 | 0.00 | 83 | 1012.0 |
| 20260903011620 | 27 | 277 | 4.8 | 8.0 | 0.00 | 0.00 | 0.00 | 83 | 1011.8 |
| 20260903010110 | 28 | 275 | 1.6 | 6.4 | 0.00 | 0.00 | 0.00 | 83 | 1011.6 |
| 20260903004604 | 28 | 278 | 3.2 | 6.4 | 0.00 | 0.00 | 0.00 | 82 | 1011.5 |
| 20260903003109 | 28 | 274 | 0.0 | 4.8 | 0.00 | 0.00 | 0.00 | 81 | 1011.4 |
| 20260903001601 | 29 | 273 | 1.6 | 6.4 | 0.00 | 0.00 | 0.00 | 79 | 1011.4 |
| 20260903000055 | 30 | 272 | 3.2 | 8.0 | 0.00 | 0.00 | 0.00 | 78 | 1011.5 |
| 20260902234557 | 30 | 264 | 3.2 | 8.0 | 0.00 | 0.00 | 0.00 | 76 | 1011.5 |
| 20260902233054 | 31 | 283 | 3.2 | 8.0 | 0.00 | 0.00 | 0.00 | 73 | 1011.5 |
| 20260902231555 | 31 | 267 | 0.0 | 8.0 | 0.00 | 0.00 | 0.00 | 72 | 1011.7 |
| 20260902230059 | 32 | 278 | 3.2 | 9.7 | 0.00 | 0.00 | 0.00 | 71 | 1011.7 |
| 20260902224558 | 32 | 283 | 4.8 | 9.7 | 0.00 | 0.00 | 0.00 | 69 | 1011.8 |
| 20260902223051 | 32 | 284 | 6.4 | 9.7 | 0.00 | 0.00 | 0.00 | 68 | 1011.8 |
| 20260902221550 | 32 | 308 | 3.2 | 12.9 | 0.00 | 0.00 | 0.00 | 69 | 1011.8 |
| 20260902220054 | 32 | 307 | 8.0 | 14.5 | 0.00 | 0.00 | 0.00 | 67 | 1011.8 |
| 20260902214551 | 32 | 290 | 4.8 | 16.1 | 0.00 | 0.00 | 0.00 | 67 | 1011.9 |
| 20260902213049 | 33 | 285 | 4.8 | 12.9 | 0.00 | 0.00 | 0.00 | 68 | 1011.9 |
| 20260902211547 | 32 | 283 | 6.4 | 14.5 | 0.00 | 0.00 | 0.00 | 67 | 1011.9 |
| 20260902210046 | 33 | 285 | 4.8 | 16.1 | 0.00 | 0.00 | 0.00 | 68 | 1012.0 |
| 20260902204544 | 32 | 290 | 11.3 | 20.9 | 0.00 | 0.00 | 0.00 | 64 | 1012.1 |
| 20260902203041 | 32 | 319 | 8.0 | 16.1 | 0.00 | 0.00 | 0.00 | 64 | 1012.2 |
| 20260902201551 | 32 | 281 | 8.0 | 16.1 | 0.00 | 0.00 | 0.00 | 67 | 1012.3 |
| 20260902200044 | 32 | 290 | 9.7 | 16.1 | 0.00 | 0.00 | 0.00 | 67 | 1012.4 |
| 20260902194549 | 32 | 277 | 9.7 | 16.1 | 0.00 | 0.00 | 0.00 | 68 | 1012.5 |
| 20260902193033 | 32 | 332 | 6.4 | 14.5 | 0.00 | 0.00 | 0.00 | 69 | 1012.7 |
| 20260902191532 | 32 | 297 | 6.4 | 24.1 | 0.00 | 0.00 | 0.00 | 71 | 1012.7 |
| 20260902190030 | 32 | 313 | 11.3 | 20.9 | 0.00 | 0.00 | 0.00 | 66 | 1012.9 |
| 20260902184530 | 32 | 316 | 8.0 | 12.9 | 0.00 | 0.00 | 0.00 | 71 | 1012.9 |
| 20260902183027 | 32 | 283 | 8.0 | 17.7 | 0.00 | 0.00 | 0.00 | 73 | 1012.9 |
| 20260902181522 | 31 | 277 | 9.7 | 16.1 | 0.00 | 0.00 | 0.00 | 70 | 1012.9 |
| 20260902180023 | 32 | 287 | 9.7 | 16.1 | 0.00 | 0.00 | 0.00 | 70 | 1013.0 |
| 20260902174520 | 31 | 259 | 6.4 | 14.5 | 0.00 | 0.00 | 0.00 | 70 | 1013.1 |
| 20260902173025 | 31 | 305 | 4.8 | 14.5 | 0.00 | 0.00 | 0.00 | 69 | 1013.3 |
| 20260902171516 | 31 | 284 | 3.2 | 11.3 | 0.00 | 0.00 | 0.00 | 72 | 1013.5 |
| 20260902170017 | 31 | 267 | 6.4 | 12.9 | 0.00 | 0.00 | 0.00 | 72 | 1013.5 |
| 20260902164510 | 31 | 273 | 6.4 | 12.9 | 0.00 | 0.00 | 0.00 | 72 | 1013.6 |
| 20260902163008 | 30 | 269 | 4.8 | 12.9 | 0.00 | 0.00 | 0.00 | 73 | 1013.7 |
| 20260902161504 | 30 | 284 | 8.0 | 14.5 | 0.00 | 0.00 | 0.00 | 73 | 1013.9 |
| 20260902160002 | 30 | 260 | 6.4 | 9.7 | 0.00 | 0.00 | 0.00 | 72 | 1014.0 |
| 20260902154602 | 30 | 277 | 1.6 | 12.9 | 0.00 | 0.00 | 0.00 | 76 | 1014.1 |
| 20260902153054 | 29 | 298 | 4.8 | 14.5 | 0.00 | 0.00 | 0.00 | 75 | 1014.1 |
| 20260902151553 | 29 | 342 | 8.0 | 12.9 | 0.00 | 0.00 | 0.00 | 76 | 1014.0 |
| 20260902150047 | 28 | 326 | 6.4 | 11.3 | 0.00 | 0.00 | 0.00 | 76 | 1014.1 |
| 20260902144544 | 28 | 293 | 8.0 | 16.1 | 0.00 | 0.00 | 0.00 | 76 | 1014.1 |
| 20260902143042 | 28 | 284 | 4.8 | 14.5 | 0.00 | 0.00 | 0.00 | 78 | 1014.0 |
| 20260902141541 | 27 | 305 | 8.0 | 16.1 | 0.00 | 0.00 | 0.00 | 77 | 1014.1 |
| 20260902140035 | 27 | 307 | 6.4 | 12.9 | 0.00 | 0.00 | 0.00 | 80 | 1014.0 |
| 20260902134538 | 26 | 285 | 6.4 | 12.9 | 0.00 | 0.00 | 0.00 | 79 | 1014.1 |
| 20260902133033 | 26 | 283 | 6.4 | 12.9 | 0.00 | 0.00 | 0.00 | 81 | 1014.0 |
| 20260902131537 | 25 | 290 | 4.8 | 12.9 | 0.00 | 0.00 | 0.00 | 82 | 1014.2 |
| 20260902130032 | 25 | 290 | 0.0 | 9.7 | 0.00 | 0.00 | 0.00 | 84 | 1014.4 |
| 20260902124531 | 25 | 302 | 3.2 | 6.4 | 0.00 | 0.00 | 0.00 | 85 | 1014.4 |
| 20260902123030 | 24 | 274 | 0.0 | 8.0 | 0.00 | 0.00 | 0.00 | 86 | 1014.5 |
| 20260902121527 | 24 | 304 | 3.2 | 8.0 | 0.00 | 0.00 | 0.00 | 87 | 1014.6 |
| 20260902120025 | 23 | 260 | 0.0 | 8.0 | 0.00 | 0.00 | 0.00 | 87 | 1014.5 |
| 20260902114524 | 23 | 268 | 3.2 | 8.0 | 0.00 | 0.00 | 0.00 | 88 | 1014.2 |
| 20260902113022 | 23 | 278 | 3.2 | 11.3 | 0.00 | 0.00 | 0.00 | 88 | 1014.2 |
| 20260902111521 | 23 | 266 | 0.0 | 0.0 | 0.00 | 0.00 | 0.00 | 88 | 1014.1 |
| 20260902110030 | 23 | 265 | 0.0 | 0.0 | 0.00 | 0.00 | 0.00 | 88 | 1014.0 |
| 20260902104540 | 23 | 269 | 0.0 | 1.6 | 0.00 | 0.00 | 0.00 | 88 | 1014.1 |
| 20260902103017 | 23 | 266 | 0.0 | 4.8 | 0.00 | 0.00 | 0.00 | 88 | 1013.9 |
| 20260902101515 | 23 | 255 | 0.0 | 3.2 | 0.00 | 0.00 | 0.00 | 88 | 1013.7 |
| 20260902100013 | 24 | 259 | 0.0 | 0.0 | 0.00 | 0.00 | 0.00 | 87 | 1013.6 |
| 20260902094514 | 24 | 266 | 0.0 | 3.2 | 0.00 | 0.00 | 0.00 | 87 | 1013.5 |
| 20260902093012 | 25 | 257 | 0.0 | 4.8 | 0.00 | 0.00 | 0.00 | 87 | 1013.4 |
| 20260902091513 | 25 | 273 | 0.0 | 0.0 | 0.00 | 0.00 | 0.00 | 87 | 1013.5 |
| 20260902090010 | 25 | 266 | 0.0 | 8.0 | 0.00 | 0.00 | 0.00 | 87 | 1013.4 |
| 20260902084508 | 24 | 259 | 0.0 | 6.4 | 0.00 | 0.00 | 0.00 | 88 | 1013.4 |
| 20260902083007 | 24 | 262 | 0.0 | 4.8 | 0.00 | 0.00 | 0.00 | 89 | 1013.4 |
| 20260902081506 | 24 | 278 | 0.0 | 6.4 | 0.00 | 0.00 | 0.00 | 89 | 1013.4 |
| 20260902080013 | 24 | 274 | 1.6 | 6.4 | 0.00 | 0.00 | 0.00 | 89 | 1013.6 |
| 20260902074505 | 24 | 280 | 1.6 | 6.4 | 0.00 | 0.00 | 0.00 | 89 | 1013.6 |
| 20260902073002 | 24 | 278 | 3.2 | 8.0 | 0.00 | 0.00 | 0.00 | 89 | 1013.4 |
| 20260902071619 | 25 | 280 | 0.0 | 0.0 | 0.00 | 0.00 | 0.00 | 88 | 1013.4 |
| 20260902070059 | 25 | 278 | 0.0 | 1.6 | 0.00 | 0.00 | 0.00 | 88 | 1013.3 |
| 20260902064603 | 25 | 260 | 1.6 | 8.0 | 0.00 | 0.00 | 0.00 | 88 | 1013.3 |
| 20260902063113 | 25 | 281 | 1.6 | 4.8 | 0.00 | 0.00 | 0.00 | 88 | 1013.3 |
| 20260902060118 | 25 | 263 | 1.6 | 8.0 | 0.00 | 0.00 | 0.00 | 88 | 1013.4 |
| 20260902054549 | 26 | 283 | 3.2 | 6.4 | 0.00 | 0.00 | 0.00 | 87 | 1013.4 |
| 20260902053048 | 26 | 271 | 1.6 | 6.4 | 0.00 | 0.00 | 0.00 | 87 | 1013.4 |
| 20260902051551 | 26 | 287 | 1.6 | 9.7 | 0.00 | 0.00 | 0.00 | 87 | 1013.4 |
| 20260902050045 | 26 | 274 | 1.6 | 8.0 | 0.00 | 0.00 | 0.00 | 87 | 1013.4 |
| 20260902044546 | 26 | 270 | 1.6 | 8.0 | 0.00 | 0.00 | 0.00 | 87 | 1013.4 |
| 20260902043046 | 26 | 276 | 3.2 | 12.9 | 0.00 | 0.00 | 0.00 | 87 | 1013.3 |
| 20260902041541 | 26 | 276 | 1.6 | 6.4 | 0.00 | 0.00 | 0.00 | 86 | 1013.4 |
| 20260902040038 | 26 | 283 | 1.6 | 11.3 | 0.00 | 0.00 | 0.00 | 86 | 1013.3 |
| 20260902034537 | 26 | 274 | 3.2 | 9.7 | 0.00 | 0.00 | 0.00 | 86 | 1013.3 |
| 20260902033036 | 27 | 277 | 3.2 | 8.0 | 0.00 | 0.00 | 0.00 | 87 | 1013.3 |
| 20260902031542 | 27 | 272 | 3.2 | 6.4 | 0.00 | 0.00 | 0.00 | 86 | 1013.2 |
| 20260902030037 | 27 | 276 | 3.2 | 8.0 | 0.00 | 0.00 | 0.00 | 87 | 1013.2 |